Time,TemperatureF,DewpointF,PressureIn,WindDirection,WindDirectionDegrees,WindSpeedMPH,WindSpeedGustMPH,Humidity,HourlyPrecipIn,Conditions,Clouds,dailyrainin,SoftwareType,DateUTC
2013-01-14 08:02:00,58.6,56.6,28.82,WSW,238,0.0,0.0,93,0.00,,BKN095,0.00,VWS V14.01,2013-01-14 13:02:00,
2013-01-14 08:03:00,58.6,56.6,28.82,WSW,238,0.0,0.0,93,0.00,,BKN095,0.00,VWS V14.01,2013-01-14 13:03:00,
2013-01-14 08:08:00,58.6,56.6,28.82,WSW,238,0.0,0.0,93,0.00,,BKN095,0.00,VWS V14.01,2013-01-14 13:08:00,
2013-01-14 08:13:00,58.8,56.8,28.82,WSW,238,0.0,0.0,93,0.00,,BKN095,0.00,VWS V14.01,2013-01-14 13:13:00,
2013-01-14 08:18:00,59.0,57.0,28.82,WSW,238,0.0,0.0,93,0.00,,BKN095,0.00,VWS V14.01,2013-01-14 13:18:00,
2013-01-14 08:23:00,59.0,57.0,28.82,WSW,239,0.0,0.0,93,0.00,,BKN095,0.00,VWS V14.01,2013-01-14 13:23:00,
2013-01-14 08:28:00,59.0,57.0,28.82,WSW,238,0.0,0.0,93,0.00,,BKN095,0.00,VWS V14.01,2013-01-14 13:28:00,
2013-01-14 08:33:00,59.2,57.2,28.85,WSW,238,0.0,0.0,93,0.00,,-RA,0.00,VWS V14.01,2013-01-14 13:33:00,
2013-01-14 08:38:00,59.0,57.0,28.85,WSW,238,0.0,0.0,93,0.00,,-RA,0.00,VWS V14.01,2013-01-14 13:38:00,
2013-01-14 08:43:00,59.0,57.0,28.85,WSW,238,0.0,0.0,93,0.00,,-RA,0.00,VWS V14.01,2013-01-14 13:43:00,
2013-01-14 08:48:00,59.2,57.5,28.85,WSW,238,0.0,0.0,94,0.00,,-RA,0.00,VWS V14.01,2013-01-14 13:48:00,
2013-01-14 08:54:00,59.2,57.5,28.85,WSW,238,0.0,0.0,94,0.00,,-RA,0.00,VWS V14.01,2013-01-14 13:54:00,
2013-01-14 08:59:00,59.2,57.5,28.85,WSW,238,0.0,0.0,94,0.00,,-RA,0.00,VWS V14.01,2013-01-14 13:59:00,
2013-01-14 09:04:00,59.2,57.5,28.85,WSW,238,0.0,0.0,94,0.00,,-RA,0.00,VWS V14.01,2013-01-14 14:04:00,
2013-01-14 09:09:00,59.2,57.5,28.85,WSW,238,0.0,0.0,94,0.00,,-RA,0.00,VWS V14.01,2013-01-14 14:09:00,
2013-01-14 09:14:00,59.2,57.5,28.85,WSW,238,0.0,0.0,94,0.00,,-RA,0.00,VWS V14.01,2013-01-14 14:14:00,
2013-01-14 09:19:00,59.2,57.5,28.85,WSW,239,0.0,0.0,94,0.00,,-RA,0.00,VWS V14.01,2013-01-14 14:19:00,
2013-01-14 09:24:00,59.4,57.6,28.85,WSW,238,0.0,0.0,94,0.00,,-RA,0.00,VWS V14.01,2013-01-14 14:24:00,
2013-01-14 09:29:00,59.4,57.6,28.85,WSW,238,0.0,0.0,94,0.00,,-RA,0.00,VWS V14.01,2013-01-14 14:29:00,
2013-01-14 09:34:00,59.4,57.6,28.88,WSW,238,0.0,0.0,94,0.00,,-RA,0.00,VWS V14.01,2013-01-14 14:34:00,
2013-01-14 09:39:00,59.4,57.6,28.88,WSW,238,0.0,0.0,94,0.00,,-RA,0.00,VWS V14.01,2013-01-14 14:39:00,
2013-01-14 09:44:00,59.4,57.6,28.88,WSW,239,0.0,0.0,94,0.00,,-RA,0.00,VWS V14.01,2013-01-14 14:44:00,
2013-01-14 09:49:00,59.4,57.6,28.88,WSW,239,0.0,0.0,94,0.00,,-RA,0.00,VWS V14.01,2013-01-14 14:49:00,
2013-01-14 09:55:00,59.4,57.6,28.88,WSW,238,0.0,0.0,94,0.00,,-RA,0.00,VWS V14.01,2013-01-14 14:55:00,
2013-01-14 10:00:00,59.4,57.6,28.88,WSW,238,0.0,0.0,94,0.00,,-RA,0.00,VWS V14.01,2013-01-14 15:00:00,
2013-01-14 10:05:00,59.4,57.6,28.88,WSW,238,0.0,0.0,94,0.00,,OVC017,0.00,VWS V14.01,2013-01-14 15:05:00,
2013-01-14 10:10:00,59.4,57.6,28.88,WSW,238,0.0,0.0,94,0.00,,OVC017,0.00,VWS V14.01,2013-01-14 15:10:00,
2013-01-14 10:15:00,59.2,57.5,28.88,WSW,238,0.0,0.0,94,0.00,,OVC017,0.00,VWS V14.01,2013-01-14 15:15:00,
2013-01-14 10:20:00,58.6,56.9,28.88,WSW,238,0.0,3.1,94,0.00,,OVC017,0.00,VWS V14.01,2013-01-14 15:20:00,
2013-01-14 10:25:00,58.3,56.3,28.88,WSW,238,0.0,0.0,93,0.00,,OVC017,0.00,VWS V14.01,2013-01-14 15:25:00,
2013-01-14 10:30:00,58.1,56.1,28.88,NW,315,0.0,0.0,93,0.00,,OVC017,0.00,VWS V14.01,2013-01-14 15:30:00,
2013-01-14 10:35:00,57.4,54.8,28.88,North,353,0.0,0.0,91,0.00,,OVC017,0.00,VWS V14.01,2013-01-14 15:35:00,
2013-01-14 10:40:00,57.4,54.2,28.88,North,353,0.0,0.0,89,0.00,,OVC017,0.00,VWS V14.01,2013-01-14 15:40:00,
2013-01-14 10:45:00,57.2,53.7,28.88,NNW,328,0.0,2.7,88,0.00,,OVC017,0.00,VWS V14.01,2013-01-14 15:45:00,
2013-01-14 10:50:00,57.2,52.7,28.88,West,281,0.0,0.0,85,0.00,,OVC017,0.00,VWS V14.01,2013-01-14 15:50:00,
2013-01-14 10:55:00,57.2,51.8,28.88,West,281,0.0,0.0,82,0.00,,OVC017,0.00,VWS V14.01,2013-01-14 15:55:00,
2013-01-14 11:00:00,57.2,50.8,28.88,North,357,0.0,0.0,79,0.00,,OVC017,0.00,VWS V14.01,2013-01-14 16:00:00,
2013-01-14 11:06:00,57.0,48.1,28.88,NNW,335,0.0,0.0,72,0.00,,OVC021,0.00,VWS V14.01,2013-01-14 16:06:00,
2013-01-14 11:11:00,57.2,46.8,28.88,West,279,0.0,0.0,68,0.00,,OVC021,0.00,VWS V14.01,2013-01-14 16:11:00,
2013-01-14 11:16:00,57.2,46.0,28.88,West,278,0.0,0.0,66,0.00,,OVC021,0.00,VWS V14.01,2013-01-14 16:16:00,
2013-01-14 11:21:00,57.0,45.8,28.88,NNW,336,0.0,0.0,66,0.00,,OVC021,0.00,VWS V14.01,2013-01-14 16:21:00,
2013-01-14 11:26:00,57.0,45.4,28.88,NNW,333,0.0,2.2,65,0.00,,OVC021,0.00,VWS V14.01,2013-01-14 16:26:00,
2013-01-14 11:31:00,56.8,44.8,28.88,West,277,0.0,0.0,64,0.00,,OVC021,0.00,VWS V14.01,2013-01-14 16:31:00,
2013-01-14 11:36:00,57.0,44.6,28.88,WSW,245,0.0,0.0,63,0.00,,OVC021,0.00,VWS V14.01,2013-01-14 16:36:00,
2013-01-14 11:41:00,56.8,44.0,28.88,WNW,297,0.0,0.0,62,0.00,,OVC021,0.00,VWS V14.01,2013-01-14 16:41:00,
2013-01-14 11:46:00,56.8,43.1,28.88,WNW,297,0.0,0.0,60,0.00,,OVC021,0.00,VWS V14.01,2013-01-14 16:46:00,
2013-01-14 11:51:00,56.8,43.1,28.88,WNW,302,0.0,0.0,60,0.00,,OVC021,0.00,VWS V14.01,2013-01-14 16:51:00,
2013-01-14 11:56:00,56.8,44.4,28.88,WNW,302,0.0,0.0,63,0.00,,OVC021,0.00,VWS V14.01,2013-01-14 16:56:00,
2013-01-14 12:01:00,56.8,43.5,28.85,NW,311,0.0,0.0,61,0.00,,OVC021,0.00,VWS V14.01,2013-01-14 17:01:00,
2013-01-14 12:06:00,56.8,44.0,28.85,NNW,339,0.0,0.0,62,0.00,,OVC025,0.00,VWS V14.01,2013-01-14 17:06:00,
2013-01-14 12:11:00,56.7,43.4,28.85,NNW,340,0.0,0.0,61,0.00,,OVC025,0.00,VWS V14.01,2013-01-14 17:11:00,
2013-01-14 12:16:00,56.7,42.5,28.85,NE,43,0.0,2.7,59,0.00,,OVC025,0.00,VWS V14.01,2013-01-14 17:16:00,
2013-01-14 12:21:00,56.7,43.0,28.85,NNE,29,0.0,2.2,60,0.00,,OVC025,0.00,VWS V14.01,2013-01-14 17:21:00,
2013-01-14 12:26:00,56.7,43.4,28.85,NNE,29,0.0,0.0,61,0.00,,OVC025,0.00,VWS V14.01,2013-01-14 17:26:00,
2013-01-14 12:32:00,56.7,43.4,28.85,NNW,330,0.0,0.0,61,0.00,,OVC025,0.00,VWS V14.01,2013-01-14 17:32:00,
2013-01-14 12:37:00,56.7,43.0,28.85,NW,324,0.0,0.0,60,0.00,,OVC025,0.00,VWS V14.01,2013-01-14 17:37:00,
2013-01-14 12:42:00,56.7,42.5,28.85,West,262,0.0,2.7,59,0.00,,OVC025,0.00,VWS V14.01,2013-01-14 17:42:00,
2013-01-14 12:47:00,56.5,41.9,28.88,NNW,338,0.0,0.0,58,0.00,,OVC025,0.00,VWS V14.01,2013-01-14 17:47:00,
2013-01-14 12:52:00,56.5,41.5,28.88,West,262,0.0,0.0,57,0.00,,OVC025,0.00,VWS V14.01,2013-01-14 17:52:00,
2013-01-14 12:57:00,56.3,40.8,28.88,WSW,237,3.1,3.1,56,0.00,,OVC025,0.00,VWS V14.01,2013-01-14 17:57:00,
2013-01-14 13:02:00,56.3,40.8,28.85,WSW,252,0.0,0.0,56,0.00,,OVC025,0.00,VWS V14.01,2013-01-14 18:02:00,
2013-01-14 13:07:00,56.1,39.7,28.85,West,275,0.0,0.0,54,0.00,,OVC025,0.00,VWS V14.01,2013-01-14 18:07:00,
2013-01-14 13:12:00,56.1,40.2,28.85,West,278,0.0,0.0,55,0.00,,OVC025,0.00,VWS V14.01,2013-01-14 18:12:00,
2013-01-14 13:17:00,56.1,40.2,28.88,West,271,2.2,2.2,55,0.00,,OVC025,0.00,VWS V14.01,2013-01-14 18:17:00,
2013-01-14 13:22:00,56.1,39.7,28.88,NW,313,0.0,0.0,54,0.00,,OVC025,0.00,VWS V14.01,2013-01-14 18:22:00,
2013-01-14 13:28:00,56.1,39.7,28.88,NNW,328,0.0,0.0,54,0.00,,OVC025,0.00,VWS V14.01,2013-01-14 18:28:00,
2013-01-14 13:33:00,55.9,39.5,28.85,West,261,0.0,0.0,54,0.00,,OVC025,0.00,VWS V14.01,2013-01-14 18:33:00,
2013-01-14 13:38:00,55.9,40.0,28.85,West,261,0.0,0.0,55,0.00,,OVC025,0.00,VWS V14.01,2013-01-14 18:38:00,
2013-01-14 13:43:00,55.8,40.8,28.85,NW,309,0.0,0.0,57,0.00,,OVC025,0.00,VWS V14.01,2013-01-14 18:43:00,
2013-01-14 13:48:00,55.6,41.5,28.85,NW,309,0.0,0.0,59,0.04,,OVC025,0.04,VWS V14.01,2013-01-14 18:48:00,
2013-01-14 13:53:00,55.4,42.2,28.85,NW,309,0.0,0.0,61,0.04,,OVC025,0.04,VWS V14.01,2013-01-14 18:53:00,
2013-01-14 13:58:00,55.2,42.9,28.85,NW,309,0.0,0.0,63,0.04,,OVC025,0.04,VWS V14.01,2013-01-14 18:58:00,
2013-01-14 14:03:00,55.0,42.3,28.85,SW,223,0.0,0.0,62,0.04,,-RA,0.04,VWS V14.01,2013-01-14 19:03:00,
2013-01-14 14:08:00,54.9,42.9,28.85,SW,223,0.0,0.0,64,0.04,,-RA,0.04,VWS V14.01,2013-01-14 19:08:00,
2013-01-14 14:13:00,54.9,44.1,28.85,SW,223,0.0,0.0,67,0.04,,-RA,0.04,VWS V14.01,2013-01-14 19:13:00,
2013-01-14 14:18:00,54.9,44.5,28.85,SW,223,0.0,0.0,68,0.04,,-RA,0.04,VWS V14.01,2013-01-14 19:18:00,
2013-01-14 14:24:00,54.5,44.5,28.85,SW,223,0.0,0.0,69,0.04,,-RA,0.04,VWS V14.01,2013-01-14 19:24:00,
2013-01-14 14:29:00,54.5,45.3,28.85,SW,223,0.0,0.0,71,0.04,,-RA,0.04,VWS V14.01,2013-01-14 19:29:00,
2013-01-14 14:34:00,54.3,45.5,28.85,NNW,341,0.0,0.0,72,0.08,,-RA,0.08,VWS V14.01,2013-01-14 19:34:00,
2013-01-14 14:39:00,54.1,45.3,28.85,NNE,13,0.0,0.0,72,0.08,,-RA,0.08,VWS V14.01,2013-01-14 19:39:00,
2013-01-14 14:44:00,54.1,45.3,28.85,North,353,0.0,0.0,72,0.08,,-RA,0.08,VWS V14.01,2013-01-14 19:44:00,
2013-01-14 14:49:00,54.1,45.3,28.85,NNW,343,0.0,0.0,72,0.04,,-RA,0.08,VWS V14.01,2013-01-14 19:49:00,
2013-01-14 14:54:00,54.3,46.2,28.85,WNW,302,0.0,0.0,74,0.04,,-RA,0.08,VWS V14.01,2013-01-14 19:54:00,
2013-01-14 14:59:00,54.3,46.2,28.85,West,280,0.0,0.0,74,0.04,,-RA,0.08,VWS V14.01,2013-01-14 19:59:00,
2013-01-14 15:04:00,54.3,46.6,28.88,West,280,0.0,0.0,75,0.04,,OVC100,0.08,VWS V14.01,2013-01-14 20:04:00,
2013-01-14 15:09:00,54.3,46.6,28.88,West,280,0.0,0.0,75,0.04,,OVC100,0.08,VWS V14.01,2013-01-14 20:09:00,
2013-01-14 15:14:00,54.3,46.6,28.88,WNW,302,0.0,0.0,75,0.04,,OVC100,0.08,VWS V14.01,2013-01-14 20:14:00,
2013-01-14 15:20:00,54.3,46.2,28.85,WNW,302,0.0,0.0,74,0.04,,OVC100,0.08,VWS V14.01,2013-01-14 20:20:00,
2013-01-14 15:25:00,54.1,45.7,28.85,WNW,302,0.0,0.0,73,0.04,,OVC100,0.08,VWS V14.01,2013-01-14 20:25:00,
2013-01-14 15:30:00,54.0,45.5,28.85,NE,49,0.0,0.0,73,0.04,,OVC100,0.08,VWS V14.01,2013-01-14 20:30:00,
2013-01-14 15:35:00,54.1,46.0,28.85,WNW,292,2.2,2.2,74,0.00,,OVC100,0.08,VWS V14.01,2013-01-14 20:35:00,
2013-01-14 15:40:00,54.1,46.4,28.85,West,278,0.0,0.0,75,0.00,,OVC100,0.08,VWS V14.01,2013-01-14 20:40:00,
2013-01-14 15:45:00,54.1,46.4,28.85,West,278,2.7,2.7,75,0.00,,OVC100,0.08,VWS V14.01,2013-01-14 20:45:00,
2013-01-14 15:50:00,54.3,47.3,28.88,West,267,0.0,0.0,77,0.00,,OVC100,0.08,VWS V14.01,2013-01-14 20:50:00,
2013-01-14 15:55:00,54.1,47.1,28.88,West,267,0.0,0.0,77,0.00,,OVC100,0.08,VWS V14.01,2013-01-14 20:55:00,
2013-01-14 16:00:00,54.1,47.1,28.88,West,267,0.0,0.0,77,0.00,,OVC100,0.08,VWS V14.01,2013-01-14 21:00:00,
2013-01-14 16:05:00,54.1,47.1,28.88,West,267,0.0,0.0,77,0.00,,OVC027,0.08,VWS V14.01,2013-01-14 21:05:00,
2013-01-14 16:10:00,54.1,47.1,28.88,West,267,0.0,0.0,77,0.00,,OVC027,0.08,VWS V14.01,2013-01-14 21:10:00,
2013-01-14 16:15:00,54.0,46.6,28.88,West,267,0.0,0.0,76,0.00,,OVC027,0.08,VWS V14.01,2013-01-14 21:15:00,
2013-01-14 16:20:00,53.8,46.4,28.88,West,267,0.0,0.0,76,0.00,,OVC027,0.08,VWS V14.01,2013-01-14 21:20:00,
2013-01-14 16:25:00,53.8,46.4,28.88,West,267,0.0,0.0,76,0.00,,OVC027,0.08,VWS V14.01,2013-01-14 21:25:00,
2013-01-14 16:30:00,53.8,46.4,28.88,West,267,0.0,0.0,76,0.00,,OVC027,0.08,VWS V14.01,2013-01-14 21:30:00,
2013-01-14 16:36:00,53.8,46.8,28.88,West,267,0.0,0.0,77,0.00,,OVC027,0.08,VWS V14.01,2013-01-14 21:36:00,
2013-01-14 16:41:00,53.8,47.1,28.88,West,267,0.0,0.0,78,0.00,,OVC027,0.08,VWS V14.01,2013-01-14 21:41:00,
2013-01-14 16:46:00,53.8,47.4,28.91,West,267,0.0,0.0,79,0.00,,OVC027,0.08,VWS V14.01,2013-01-14 21:46:00,
2013-01-14 16:51:00,53.8,47.8,28.91,West,267,0.0,0.0,80,0.00,,OVC027,0.08,VWS V14.01,2013-01-14 21:51:00,
2013-01-14 16:56:00,53.8,48.1,28.91,West,267,0.0,0.0,81,0.00,,OVC027,0.08,VWS V14.01,2013-01-14 21:56:00,
2013-01-14 17:01:00,53.6,47.9,28.88,SE,141,0.0,0.0,81,0.00,,OVC027,0.08,VWS V14.01,2013-01-14 22:01:00,
2013-01-14 17:06:00,53.8,48.4,28.88,SE,141,0.0,0.0,82,0.00,,-RA,0.08,VWS V14.01,2013-01-14 22:06:00,
2013-01-14 17:11:00,53.8,48.4,28.88,SE,141,0.0,0.0,82,0.00,,-RA,0.08,VWS V14.01,2013-01-14 22:11:00,
2013-01-14 17:17:00,53.8,48.8,28.88,SE,141,0.0,0.0,83,0.04,,-RA,0.12,VWS V14.01,2013-01-14 22:17:00,
2013-01-14 17:22:00,53.6,48.6,28.88,SE,141,0.0,0.0,83,0.04,,-RA,0.12,VWS V14.01,2013-01-14 22:22:00,
2013-01-14 17:27:00,53.6,48.6,28.88,SE,141,0.0,0.0,83,0.04,,-RA,0.12,VWS V14.01,2013-01-14 22:27:00,
2013-01-14 17:32:00,53.6,48.9,28.88,SE,141,0.0,0.0,84,0.04,,-RA,0.12,VWS V14.01,2013-01-14 22:32:00,
2013-01-14 17:37:00,53.4,48.7,28.88,NW,312,0.0,0.0,84,0.04,,-RA,0.12,VWS V14.01,2013-01-14 22:37:00,
2013-01-14 17:42:00,53.2,48.5,28.88,NW,312,0.0,0.0,84,0.04,,-RA,0.12,VWS V14.01,2013-01-14 22:42:00,
2013-01-14 17:47:00,52.9,48.2,28.91,West,275,0.0,0.0,84,0.04,,-RA,0.12,VWS V14.01,2013-01-14 22:47:00,
2013-01-14 17:52:00,52.9,48.2,28.91,West,275,0.0,0.0,84,0.04,,-RA,0.12,VWS V14.01,2013-01-14 22:52:00,
2013-01-14 17:57:00,52.9,48.2,28.91,West,275,0.0,0.0,84,0.04,,-RA,0.12,VWS V14.01,2013-01-14 22:57:00,
2013-01-14 18:02:00,52.9,48.2,28.91,West,275,0.0,0.0,84,0.04,,-RA,0.12,VWS V14.01,2013-01-14 23:02:00,
2013-01-14 18:07:00,52.9,48.5,28.91,West,275,0.0,0.0,85,0.04,,-RA,0.12,VWS V14.01,2013-01-14 23:07:00,
2013-01-14 18:13:00,52.9,48.5,28.91,West,275,0.0,0.0,85,0.04,,-RA,0.12,VWS V14.01,2013-01-14 23:13:00,
2013-01-14 18:18:00,52.9,48.5,28.91,West,275,0.0,0.0,85,0.00,,-RA,0.12,VWS V14.01,2013-01-14 23:18:00,
2013-01-14 18:23:00,52.9,48.5,28.91,West,275,0.0,0.0,85,0.00,,-RA,0.12,VWS V14.01,2013-01-14 23:23:00,
2013-01-14 18:28:00,52.9,48.5,28.91,West,275,0.0,0.0,85,0.00,,-RA,0.12,VWS V14.01,2013-01-14 23:28:00,
2013-01-14 18:33:00,52.7,48.3,28.91,West,275,0.0,0.0,85,0.00,,-RA,0.12,VWS V14.01,2013-01-14 23:33:00,
2013-01-14 18:38:00,52.5,48.2,28.91,West,275,0.0,0.0,85,0.00,,-RA,0.12,VWS V14.01,2013-01-14 23:38:00,
2013-01-14 18:43:00,52.5,48.2,28.91,West,275,0.0,0.0,85,0.00,,-RA,0.12,VWS V14.01,2013-01-14 23:43:00,
2013-01-14 18:48:00,52.3,48.0,28.94,West,275,0.0,0.0,85,0.00,,-RA,0.12,VWS V14.01,2013-01-14 23:48:00,
2013-01-14 18:53:00,52.3,48.0,28.94,West,275,0.0,0.0,85,0.00,,-RA,0.12,VWS V14.01,2013-01-14 23:53:00,
2013-01-14 18:58:00,52.3,48.3,28.94,West,275,0.0,0.0,86,0.00,,-RA,0.12,VWS V14.01,2013-01-14 23:58:00,
2013-01-14 19:03:00,52.5,48.5,28.94,West,275,0.0,0.0,86,0.00,,-RA,0.12,VWS V14.01,2013-01-15 00:03:00,
2013-01-14 19:09:00,52.3,48.3,28.94,West,275,0.0,0.0,86,0.00,,-RA,0.12,VWS V14.01,2013-01-15 00:09:00,
2013-01-14 19:14:00,52.3,48.3,28.94,NNE,32,3.1,3.1,86,0.04,,-RA,0.16,VWS V14.01,2013-01-15 00:14:00,
2013-01-14 19:19:00,52.2,48.4,28.91,NNE,25,0.0,0.0,87,0.04,,-RA,0.16,VWS V14.01,2013-01-15 00:19:00,
2013-01-14 19:24:00,52.2,48.4,28.91,NNE,25,0.0,0.0,87,0.04,,-RA,0.16,VWS V14.01,2013-01-15 00:24:00,
2013-01-14 19:29:00,52.0,48.2,28.91,NNE,25,0.0,0.0,87,0.04,,-RA,0.16,VWS V14.01,2013-01-15 00:29:00,
2013-01-14 19:34:00,52.0,48.2,28.94,NNE,25,0.0,0.0,87,0.04,,-RA,0.16,VWS V14.01,2013-01-15 00:34:00,
2013-01-14 19:39:00,51.8,48.1,28.94,NNE,25,0.0,0.0,87,0.04,,-RA,0.16,VWS V14.01,2013-01-15 00:39:00,
2013-01-14 19:44:00,51.8,48.1,28.94,NNE,25,0.0,0.0,87,0.08,,-RA,0.20,VWS V14.01,2013-01-15 00:44:00,
2013-01-14 19:49:00,51.6,48.2,28.94,NNE,25,0.0,0.0,88,0.08,,-RA,0.20,VWS V14.01,2013-01-15 00:49:00,
2013-01-14 19:54:00,51.6,48.2,28.94,NNE,25,0.0,0.0,88,0.08,,-RA,0.20,VWS V14.01,2013-01-15 00:54:00,
2013-01-14 19:59:00,51.6,48.2,28.94,NNE,25,0.0,0.0,88,0.08,,-RA,0.20,VWS V14.01,2013-01-15 00:59:00,
2013-01-14 20:04:00,51.6,48.2,28.91,NNE,25,0.0,0.0,88,0.12,,RA,0.24,VWS V14.01,2013-01-15 01:04:00,
2013-01-14 20:09:00,51.6,48.2,28.91,NNE,25,0.0,0.0,88,0.12,,RA,0.24,VWS V14.01,2013-01-15 01:09:00,
2013-01-14 20:14:00,51.6,48.5,28.91,NNE,25,0.0,0.0,89,0.08,,RA,0.24,VWS V14.01,2013-01-15 01:14:00,
2013-01-14 20:19:00,51.6,48.5,28.91,NNE,25,0.0,0.0,89,0.08,,RA,0.24,VWS V14.01,2013-01-15 01:19:00,
2013-01-14 20:25:00,51.6,48.5,28.91,NNE,25,0.0,0.0,89,0.08,,RA,0.24,VWS V14.01,2013-01-15 01:25:00,
2013-01-14 20:30:00,51.6,48.5,28.91,NNE,25,0.0,0.0,89,0.08,,RA,0.24,VWS V14.01,2013-01-15 01:30:00,
2013-01-14 20:35:00,51.6,48.5,28.91,NNE,25,0.0,0.0,89,0.08,,-RA,0.24,VWS V14.01,2013-01-15 01:35:00,
2013-01-14 20:40:00,51.6,48.8,28.91,NNE,25,0.0,0.0,90,0.16,,-RA,0.31,VWS V14.01,2013-01-15 01:40:00,
2013-01-14 20:45:00,51.6,48.8,28.91,NNE,25,0.0,0.0,90,0.12,,-RA,0.31,VWS V14.01,2013-01-15 01:45:00,
2013-01-14 20:50:00,51.6,48.8,28.94,NNE,25,0.0,0.0,90,0.12,,-RA,0.31,VWS V14.01,2013-01-15 01:50:00,
2013-01-14 20:55:00,51.6,48.8,28.94,NNE,25,0.0,0.0,90,0.12,,-RA,0.31,VWS V14.01,2013-01-15 01:55:00,
2013-01-14 21:00:00,51.6,48.8,28.94,NNE,25,0.0,0.0,90,0.12,,-RA,0.31,VWS V14.01,2013-01-15 02:00:00,
2013-01-14 21:05:00,51.6,49.1,28.91,NNE,24,0.0,0.0,91,0.08,,-RA,0.31,VWS V14.01,2013-01-15 02:05:00,
2013-01-14 21:10:00,51.6,49.1,28.91,NNE,24,0.0,0.0,91,0.08,,-RA,0.31,VWS V14.01,2013-01-15 02:10:00,
2013-01-14 21:15:00,51.6,49.1,28.91,NNE,24,0.0,0.0,91,0.12,,-RA,0.35,VWS V14.01,2013-01-15 02:15:00,
2013-01-14 21:20:00,51.4,48.9,28.91,NNE,24,0.0,0.0,91,0.12,,-RA,0.35,VWS V14.01,2013-01-15 02:20:00,
2013-01-14 21:25:00,51.4,48.9,28.91,NNE,24,0.0,0.0,91,0.12,,-RA,0.35,VWS V14.01,2013-01-15 02:25:00,
2013-01-14 21:30:00,51.4,48.9,28.91,NNE,24,0.0,0.0,91,0.12,,-RA,0.35,VWS V14.01,2013-01-15 02:30:00,
2013-01-14 21:35:00,51.6,49.4,28.91,NNE,24,0.0,0.0,92,0.12,,-RA,0.35,VWS V14.01,2013-01-15 02:35:00,
2013-01-14 21:40:00,51.6,49.4,28.91,NNE,24,0.0,0.0,92,0.04,,-RA,0.35,VWS V14.01,2013-01-15 02:40:00,
2013-01-14 21:45:00,51.6,49.4,28.91,NW,309,0.0,0.0,92,0.04,,-RA,0.35,VWS V14.01,2013-01-15 02:45:00,
2013-01-14 21:50:00,51.6,49.4,28.94,NW,306,0.0,0.0,92,0.08,,-RA,0.39,VWS V14.01,2013-01-15 02:50:00,
2013-01-14 21:55:00,51.6,49.4,28.94,North,357,2.7,4.0,92,0.08,,-RA,0.39,VWS V14.01,2013-01-15 02:55:00,
2013-01-14 22:00:00,51.4,49.2,28.94,North,353,0.0,0.0,92,0.08,,-RA,0.39,VWS V14.01,2013-01-15 03:00:00,
2013-01-14 22:05:00,51.4,49.2,28.94,WNW,285,0.0,0.0,92,0.08,,-RA,0.39,VWS V14.01,2013-01-15 03:05:00,
2013-01-14 22:10:00,51.4,49.2,28.94,NNE,23,2.7,2.7,92,0.12,,-RA,0.43,VWS V14.01,2013-01-15 03:10:00,
2013-01-14 22:15:00,51.4,49.2,28.94,NW,325,0.0,0.0,92,0.08,,-RA,0.43,VWS V14.01,2013-01-15 03:15:00,
2013-01-14 22:20:00,51.3,48.7,28.94,NNE,29,0.0,0.0,91,0.08,,-RA,0.43,VWS V14.01,2013-01-15 03:20:00,
2013-01-14 22:25:00,51.3,48.7,28.94,NNE,29,0.0,0.0,91,0.08,,-RA,0.43,VWS V14.01,2013-01-15 03:25:00,
2013-01-14 22:30:00,51.3,48.7,28.94,NNE,29,0.0,0.0,91,0.08,,-RA,0.43,VWS V14.01,2013-01-15 03:30:00,
2013-01-14 22:35:00,51.1,48.5,28.94,NNE,29,0.0,0.0,91,0.08,,-RA,0.43,VWS V14.01,2013-01-15 03:35:00,
2013-01-14 22:40:00,51.1,48.5,28.94,NNE,29,0.0,0.0,91,0.12,,-RA,0.47,VWS V14.01,2013-01-15 03:40:00,
2013-01-14 22:45:00,50.9,48.4,28.94,NNE,24,0.0,0.0,91,0.12,,-RA,0.47,VWS V14.01,2013-01-15 03:45:00,
2013-01-14 22:50:00,50.9,48.4,28.97,NNE,23,0.0,0.0,91,0.08,,-RA,0.47,VWS V14.01,2013-01-15 03:50:00,
2013-01-14 22:55:00,50.9,48.4,28.97,NE,44,0.0,0.0,91,0.12,,-RA,0.51,VWS V14.01,2013-01-15 03:55:00,
2013-01-14 23:00:00,50.7,48.2,28.97,NNE,27,0.0,2.2,91,0.16,,-RA,0.55,VWS V14.01,2013-01-15 04:00:00,